Weather History for New Bern, NC

Change the Weather History Date:

Friday, June 28, 2013

  Actual Average Record
Temperature  
Mean Temperature 84 °F 80 °F  
Max Temperature 92 °F 89 °F 99 °F (1959)
Min Temperature 76 °F 70 °F 58 °F (1985)
Degree Days  
Heating Degree Days 0 0  
Month to date heating degree days 0 0  
Since 1 June heating degree days 0 0  
Since 1 July heating degree days 2585 2701  
Cooling Degree Days 19 15  
Month to date cooling degree days 379 335  
Year to date cooling degree days 635 578  
Since 1 June cooling degree days 379 335  
Growing Degree Days 33 (Base 50)    
Moisture  
Dew Point 74 °F    
Average Humidity 77    
Maximum Humidity 94    
Minimum Humidity 60    
Precipitation  
Precipitation T in 0.17 in 1.11 in (1986)
Month to date precipitation 6.99 4.25  
Year to date precipitation 18.34 23.64  
Snow  
Snow 0.00 in - - ()
Month to date snowfall 0.0  
Since 1 July snowfall T  
Snow Depth 0.00 in    
Sea Level Pressure  
Sea Level Pressure 29.72 in    
Wind  
Wind Speed 9 mph (SW)    
Max Wind Speed 13 mph    
Max Gust Speed 18 mph    
Visibility 10 miles    
Events      
T = Trace of Precipitation, MM = Missing Value Source: NWS Daily Summary

Daily Weather History Graph

Daily Weather History Graph

Search for Another Location

Airport:

Trip Planner

Search our weather history database for the weather conditions in past years. The results will help you decide how hot, cold, wet, or windy it might be!

Date:

Astronomy

Jun. 28, 2013 Rise Set
Actual Time 5:56 AM EDT 8:26 PM EDT
Civil Twilight 5:26 AM EDT 8:56 PM EDT
Nautical Twilight 4:50 AM EDT 9:32 PM EDT
Astronomical Twilight 4:09 AM EDT 10:13 PM EDT
Moon No Moon Rise 11:47 AM EDT (6/28)
Length of Visible Light 15h 29m
Length of Day
14h 29m
Waning Gibbous, 66% of the Moon is Illuminated
Jun 28
Waning Gibbous
Jun 30
Last Quarter
Jul 8
New
Jul 15
First Quarter
Jul 22
Full

Hourly Weather History & Observations

Time (EDT) Temp. Heat Index Dew Point Humidity Pressure Visibility Wind Dir Wind Speed Gust Speed Precip Events Conditions
12:54 AM 77.0 °F - 73.0 °F 88% 29.80 in 10.0 mi SW 8.1 mph - N/A   Mostly Cloudy
1:54 AM 75.9 °F - 72.0 °F 87% 29.78 in 10.0 mi SSW 9.2 mph - N/A   Partly Cloudy
2:34 AM 75.2 °F - 71.6 °F 89% 29.77 in 10.0 mi South 10.4 mph - 0.00 in   Overcast
2:54 AM 75.9 °F - 73.0 °F 91% 29.77 in 10.0 mi SSW 9.2 mph - 0.00 in   Overcast
3:34 AM 78.8 °F - 73.4 °F 83% 29.76 in 10.0 mi SSW 8.1 mph 17.3 mph N/A   Overcast
3:54 AM 78.1 °F - 75.0 °F 90% 29.74 in 10.0 mi SSW 8.1 mph - N/A   Mostly Cloudy
4:01 AM 77.0 °F - 75.2 °F 94% 29.74 in 10.0 mi SSW 9.2 mph - N/A   Scattered Clouds
4:17 AM 78.8 °F - 75.2 °F 89% 29.73 in 10.0 mi SSW 8.1 mph - N/A   Partly Cloudy
4:54 AM 78.1 °F - 75.0 °F 90% 29.72 in 10.0 mi SW 9.2 mph - N/A   Clear
5:54 AM 78.1 °F - 75.0 °F 90% 29.73 in 10.0 mi SSW 5.8 mph - N/A   Scattered Clouds
6:07 AM 78.8 °F - 73.4 °F 83% 29.73 in 10.0 mi SW 8.1 mph - N/A   Mostly Cloudy
6:25 AM 78.8 °F - 73.4 °F 83% 29.73 in 10.0 mi SSW 6.9 mph - N/A   Scattered Clouds
6:54 AM 78.1 °F - 73.9 °F 87% 29.74 in 10.0 mi SSW 6.9 mph - N/A   Scattered Clouds
7:54 AM 81.0 °F 86.7 °F 75.0 °F 82% 29.73 in 10.0 mi SW 6.9 mph - N/A   Mostly Cloudy
8:09 AM 80.6 °F 86.2 °F 75.2 °F 84% 29.73 in 10.0 mi SW 9.2 mph - N/A   Mostly Cloudy
8:17 AM 80.6 °F 86.2 °F 75.2 °F 84% 29.72 in 10.0 mi SW 9.2 mph - N/A   Mostly Cloudy
8:54 AM 81.0 °F 86.7 °F 75.0 °F 82% 29.73 in 10.0 mi SW 10.4 mph - N/A   Overcast
9:54 AM 82.0 °F 89.4 °F 75.9 °F 82% 29.74 in 10.0 mi WSW 5.8 mph - N/A   Overcast
10:54 AM 82.0 °F 88.6 °F 75.0 °F 79% 29.74 in 9.0 mi WSW 10.4 mph - N/A   Overcast
11:12 AM 82.4 °F 89.5 °F 75.2 °F 79% 29.73 in 10.0 mi WSW 12.7 mph - N/A   Overcast
11:54 AM 84.0 °F 92.6 °F 75.9 °F 76% 29.73 in 10.0 mi SW 10.4 mph 17.3 mph N/A   Overcast
12:54 PM 88.0 °F 98.5 °F 75.9 °F 67% 29.72 in 10.0 mi WSW 11.5 mph - N/A   Scattered Clouds
1:54 PM 88.0 °F 98.5 °F 75.9 °F 67% 29.70 in 10.0 mi SW 10.4 mph - N/A   Scattered Clouds
2:54 PM 91.0 °F 102.9 °F 75.9 °F 61% 29.68 in 10.0 mi WSW 11.5 mph 17.3 mph N/A   Partly Cloudy
3:54 PM 91.9 °F 103.9 °F 75.9 °F 59% 29.67 in 10.0 mi SW 9.2 mph 16.1 mph N/A   Scattered Clouds
4:54 PM 90.0 °F 104.5 °F 78.1 °F 68% 29.65 in 10.0 mi South 11.5 mph 17.3 mph N/A   Scattered Clouds
5:54 PM 88.0 °F 100.2 °F 77.0 °F 70% 29.65 in 10.0 mi South 12.7 mph 18.4 mph N/A   Clear
6:54 PM 86.0 °F 96.9 °F 77.0 °F 74% 29.65 in 10.0 mi South 8.1 mph - N/A   Clear
7:54 PM 84.0 °F 93.7 °F 77.0 °F 79% 29.66 in 10.0 mi South 11.5 mph - N/A   Partly Cloudy
8:54 PM 82.0 °F 90.2 °F 77.0 °F 85% 29.67 in 10.0 mi SSW 8.1 mph - N/A   Clear
9:54 PM 81.0 °F 87.3 °F 75.9 °F 85% 29.70 in 10.0 mi SSW 6.9 mph - N/A   Clear
10:54 PM 81.0 °F 87.3 °F 75.9 °F 85% 29.72 in 9.0 mi SW 5.8 mph - N/A   Partly Cloudy
11:14 PM 80.6 °F 83.9 °F 69.8 °F 70% 29.73 in 10.0 mi NW 11.5 mph 20.7 mph N/A   Mostly Cloudy
11:33 PM 78.8 °F - 66.2 °F 65% 29.71 in 10.0 mi NNW 5.8 mph 19.6 mph N/A   Overcast
11:54 PM 77.0 °F - 68.0 °F 74% 29.70 in 10.0 mi NW 3.5 mph - N/A   Mostly Cloudy